BOE777W NGTA-NGTA

Flight info

Callsign BOE777W
Flight time 0h 5m
Altitude 15000
Route DCT NADAN DCT
Aircraft B77W/H-SDE1E2E3FGHIJ2J3J4J5M1RWXY/LB1D1

Departure

Time 2026-04-30 13:21
Airport Bonriki International Airport (NGTA)

Arrival

Time 2026-04-30 13:26
Airport Bonriki International Airport (NGTA)
Time Latitude Longitude Altitude Speed Heading
2026-04-30 12:43 1.91117 170.00000 14845 ft 432 kts 179°
2026-04-30 12:43 1.88100 170.00000 14841 ft 432 kts 179°
2026-04-30 12:43 1.85050 170.00000 14837 ft 431 kts 179°
2026-04-30 12:43 1.82044 170.00000 14840 ft 432 kts 179°
2026-04-30 12:44 1.79004 170.00000 14839 ft 432 kts 179°
2026-04-30 12:44 1.75967 170.00000 14841 ft 432 kts 179°
2026-04-30 12:44 1.72921 170.00000 14842 ft 432 kts 179°
2026-04-30 12:44 1.69895 170.00000 14841 ft 432 kts 178°
2026-04-30 12:45 1.66856 170.00000 14841 ft 432 kts 179°
2026-04-30 12:45 1.63827 170.00000 14842 ft 432 kts 179°
2026-04-30 12:45 1.60749 170.00000 14842 ft 432 kts 179°
2026-04-30 12:45 1.57710 170.00000 14842 ft 432 kts 179°
2026-04-30 12:46 1.54674 170.00000 14842 ft 432 kts 179°
2026-04-30 12:46 1.51615 170.00000 14841 ft 432 kts 179°
2026-04-30 12:46 1.48567 170.00000 14842 ft 432 kts 179°
2026-04-30 12:46 1.45542 170.00000 14842 ft 432 kts 179°
2026-04-30 12:47 1.42482 170.00000 14842 ft 432 kts 179°
2026-04-30 12:47 1.39464 170.00000 14842 ft 432 kts 179°
2026-04-30 12:47 1.36398 170.00000 14842 ft 432 kts 179°
2026-04-30 12:47 1.33391 170.00000 14842 ft 432 kts 178°
2026-04-30 12:48 1.30344 170.00000 14842 ft 432 kts 179°
2026-04-30 12:48 1.27308 170.00000 14842 ft 432 kts 178°
2026-04-30 12:48 1.24251 170.00000 14838 ft 431 kts 179°
2026-04-30 12:48 1.21206 170.00029 14833 ft 431 kts 175°
2026-04-30 12:49 1.18201 170.00385 14827 ft 430 kts 168°
2026-04-30 12:49 1.15264 170.01143 14821 ft 429 kts 160°
2026-04-30 12:49 1.12503 170.02267 14820 ft 427 kts 152°
2026-04-30 12:49 1.09886 170.03769 14819 ft 425 kts 144°
2026-04-30 12:50 1.07533 170.05576 14820 ft 424 kts 137°
2026-04-30 12:50 1.05412 170.07710 14819 ft 422 kts 129°
2026-04-30 12:50 1.03622 170.10071 14819 ft 421 kts 122°
2026-04-30 12:50 1.02167 170.12633 14819 ft 420 kts 114°
2026-04-30 12:51 1.01074 170.15329 14818 ft 418 kts 107°
2026-04-30 12:51 1.00338 170.18164 14818 ft 418 kts 100°
2026-04-30 12:51 0.99977 170.21092 14819 ft 418 kts 92°
2026-04-30 12:51 0.99941 170.23976 14821 ft 417 kts 89°
2026-04-30 12:52 0.99960 170.26868 14822 ft 417 kts 89°
2026-04-30 12:52 0.99976 170.29799 14823 ft 417 kts 89°
2026-04-30 12:52 0.99988 170.32693 14827 ft 417 kts 89°
2026-04-30 12:52 0.99996 170.35593 14830 ft 418 kts 89°
2026-04-30 12:53 1.00003 170.38480 14836 ft 417 kts 89°
2026-04-30 12:53 1.00008 170.41414 14842 ft 418 kts 89°
2026-04-30 12:53 1.00011 170.44290 14843 ft 417 kts 89°
2026-04-30 12:53 1.00014 170.47214 14842 ft 417 kts 89°
2026-04-30 12:54 1.00016 170.50166 14843 ft 417 kts 89°
2026-04-30 12:54 1.00018 170.53099 14839 ft 417 kts 89°
2026-04-30 12:54 1.00019 170.55994 14840 ft 417 kts 89°
2026-04-30 12:54 1.00020 170.58910 14840 ft 417 kts 89°
2026-04-30 12:55 1.00022 170.61845 14839 ft 417 kts 89°
2026-04-30 12:55 1.00022 170.64775 14840 ft 417 kts 89°
2026-04-30 12:55 1.00023 170.67693 14844 ft 417 kts 89°
2026-04-30 12:55 1.00024 170.70616 14843 ft 417 kts 89°
2026-04-30 12:56 1.00025 170.73528 14844 ft 417 kts 89°
2026-04-30 12:56 1.00026 170.76440 14844 ft 418 kts 89°
2026-04-30 12:56 1.00026 170.79356 14843 ft 418 kts 89°
2026-04-30 12:56 1.00027 170.82281 14843 ft 416 kts 89°
2026-04-30 12:57 1.00028 170.85185 14843 ft 416 kts 89°
2026-04-30 12:57 1.00028 170.88130 14843 ft 416 kts 89°
2026-04-30 12:57 1.00029 170.91031 14843 ft 416 kts 89°
2026-04-30 12:57 1.00029 170.93950 14843 ft 416 kts 89°
2026-04-30 12:58 1.00030 170.96855 14843 ft 416 kts 89°
2026-04-30 12:58 1.00030 170.99759 14842 ft 416 kts 89°
2026-04-30 12:58 1.00031 171.02683 14843 ft 418 kts 89°
2026-04-30 12:58 1.00031 171.05629 14842 ft 417 kts 89°
2026-04-30 12:59 1.00031 171.08530 14843 ft 418 kts 89°
2026-04-30 12:59 1.00032 171.11449 14842 ft 417 kts 89°
2026-04-30 12:59 1.00032 171.14372 14842 ft 417 kts 89°
2026-04-30 12:59 1.00032 171.17285 14842 ft 416 kts 89°
2026-04-30 13:00 1.00033 171.20155 14843 ft 416 kts 89°
2026-04-30 13:00 1.00033 171.23050 14841 ft 416 kts 89°
2026-04-30 13:00 1.00033 171.25969 14840 ft 416 kts 89°
2026-04-30 13:00 1.00033 171.28859 14839 ft 417 kts 89°
2026-04-30 13:01 1.00034 171.31761 14835 ft 416 kts 89°
2026-04-30 13:01 1.00034 171.34647 14832 ft 416 kts 89°
2026-04-30 13:01 1.00034 171.37530 14830 ft 417 kts 89°
2026-04-30 13:01 1.00034 171.40424 14826 ft 417 kts 89°
2026-04-30 13:02 1.00034 171.43344 14823 ft 417 kts 89°
2026-04-30 13:02 1.00034 171.46256 14821 ft 417 kts 89°
2026-04-30 13:02 1.00034 171.49141 14821 ft 416 kts 89°
2026-04-30 13:02 1.00034 171.52075 14820 ft 416 kts 89°
2026-04-30 13:03 1.00034 171.54980 14820 ft 416 kts 89°
2026-04-30 13:03 1.00034 171.57880 14820 ft 416 kts 89°
2026-04-30 13:03 1.00034 171.60757 14820 ft 417 kts 89°
2026-04-30 13:03 1.00034 171.63681 14821 ft 417 kts 89°
2026-04-30 13:04 1.00034 171.66614 14822 ft 417 kts 89°
2026-04-30 13:04 1.00033 171.69550 14823 ft 417 kts 89°
2026-04-30 13:04 1.00033 171.72437 14823 ft 417 kts 89°
2026-04-30 13:04 1.00033 171.75368 14823 ft 416 kts 89°
2026-04-30 13:05 1.00033 171.78268 14823 ft 416 kts 89°
2026-04-30 13:05 1.00033 171.81145 14823 ft 415 kts 89°
2026-04-30 13:05 1.00032 171.84087 14824 ft 417 kts 89°
2026-04-30 13:06 1.00032 171.89918 14824 ft 416 kts 90°
2026-04-30 13:06 1.00031 171.92784 14825 ft 415 kts 90°
2026-04-30 13:06 1.00031 171.95695 14830 ft 415 kts 90°
2026-04-30 13:06 1.00031 171.98598 14836 ft 415 kts 90°
2026-04-30 13:07 1.00030 172.01537 14840 ft 416 kts 90°
2026-04-30 13:07 1.00030 172.04421 14842 ft 416 kts 90°
2026-04-30 13:07 1.00029 172.07338 14842 ft 415 kts 90°
2026-04-30 13:07 1.00029 172.10242 14842 ft 415 kts 89°
2026-04-30 13:08 1.00028 172.13132 14842 ft 416 kts 89°
2026-04-30 13:08 1.00027 172.16049 14842 ft 415 kts 89°
2026-04-30 13:08 1.00027 172.18947 14842 ft 416 kts 89°
2026-04-30 13:08 1.00026 172.21867 14841 ft 415 kts 90°
2026-04-30 13:09 1.00026 172.24785 14842 ft 416 kts 89°
2026-04-30 13:09 1.00025 172.27657 14841 ft 415 kts 89°
2026-04-30 13:09 1.00024 172.30574 14841 ft 416 kts 90°
2026-04-30 13:09 1.00023 172.33469 14840 ft 415 kts 90°
2026-04-30 13:10 1.00023 172.36340 14841 ft 415 kts 90°
2026-04-30 13:10 1.00022 172.39246 14841 ft 416 kts 90°
2026-04-30 13:10 1.00021 172.42127 14841 ft 416 kts 90°
2026-04-30 13:10 1.00020 172.45044 14840 ft 416 kts 89°
2026-04-30 13:11 1.00019 172.47906 14841 ft 416 kts 89°
2026-04-30 13:11 1.00019 172.50800 14840 ft 415 kts 89°
2026-04-30 13:11 1.00018 172.53705 14840 ft 416 kts 89°
2026-04-30 13:11 1.00017 172.56598 14840 ft 415 kts 89°
2026-04-30 13:12 1.00016 172.59495 14841 ft 415 kts 89°
2026-04-30 13:12 1.00015 172.62352 14836 ft 414 kts 89°
2026-04-30 13:12 1.00014 172.65265 14832 ft 416 kts 90°
2026-04-30 13:13 1.00012 172.71031 14825 ft 415 kts 90°
2026-04-30 13:13 1.00011 172.73950 14824 ft 416 kts 90°
2026-04-30 13:13 1.00008 172.79706 14822 ft 416 kts 89°
2026-04-30 13:14 1.00007 172.82613 14822 ft 417 kts 89°
2026-04-30 13:14 1.00006 172.85524 14822 ft 416 kts 89°
2026-04-30 13:14 1.00004 172.91283 14822 ft 416 kts 89°
2026-04-30 13:15 1.00002 172.94206 14822 ft 416 kts 89°
2026-04-30 13:15 1.00000 172.99976 14823 ft 416 kts 89°
2026-04-30 13:15 0.99998 173.02864 14817 ft 415 kts 89°
2026-04-30 13:16 0.99996 173.05769 14810 ft 415 kts 90°
2026-04-30 13:16 0.99993 173.08673 14803 ft 416 kts 90°
2026-04-30 13:16 0.99991 173.11563 14796 ft 415 kts 90°
2026-04-30 13:17 0.99986 173.17340 14782 ft 416 kts 90°
2026-04-30 13:17 0.99983 173.20235 14774 ft 415 kts 90°
2026-04-30 13:17 0.99977 173.26007 14690 ft 417 kts 89°
2026-04-30 13:18 0.99974 173.28876 14260 ft 408 kts 89°
2026-04-30 13:18 0.99965 173.34451 13330 ft 392 kts 89°
2026-04-30 13:18 0.99960 173.37158 12862 ft 385 kts 89°
2026-04-30 13:19 0.99969 173.39801 12392 ft 378 kts 86°
2026-04-30 13:19 1.00529 173.42354 11907 ft 371 kts 67°
2026-04-30 13:19 1.01941 173.44524 11412 ft 367 kts 47°
2026-04-30 13:19 1.03982 173.46019 10925 ft 365 kts 27°
2026-04-30 13:20 1.06408 173.46703 10439 ft 364 kts
2026-04-30 13:20 1.08953 173.46846 9968 ft 360 kts
2026-04-30 13:20 1.11464 173.46910 9495 ft 357 kts
2026-04-30 13:20 1.13925 173.46947 9025 ft 354 kts 360°
2026-04-30 13:21 1.16369 173.46619 8547 ft 353 kts 348°
2026-04-30 13:21 1.18698 173.45816 8061 ft 352 kts 335°
2026-04-30 13:21 1.20760 173.44449 7565 ft 351 kts 323°
2026-04-30 13:22 1.24426 173.41470 6565 ft 326 kts 322°
2026-04-30 13:22 1.26196 173.40021 6089 ft 315 kts 322°
2026-04-30 13:22 1.29570 173.37257 5209 ft 317 kts 322°
2026-04-30 13:23 1.31285 173.35855 4729 ft 319 kts 322°
2026-04-30 13:23 1.34709 173.32960 3751 ft 322 kts 312°
2026-04-30 13:24 1.36304 173.28938 3001 ft 298 kts 279°
2026-04-30 13:24 1.36841 173.25055 2879 ft 264 kts 277°
2026-04-30 13:25 1.37271 173.21696 2504 ft 224 kts 277°
2026-04-30 13:25 1.37662 173.18550 827 ft 247 kts 276°
2026-04-30 13:26 1.38245 173.14049 36 ft 79 kts 282°
2026-04-30 13:26 1.38234 173.14044 36 ft 24 kts 89°
2026-04-30 13:27 1.38180 173.14510 37 ft 33 kts 109°
2026-04-30 13:28 1.38084 173.14625 36 ft 1 kts 199°
2026-04-30 13:28 1.38068 173.14609 37 ft 2 kts 231°
2026-04-30 13:28 1.38065 173.14601 37 ft 0 kts 259°
2026-04-30 13:29 1.38074 173.14584 36 ft 1 kts 321°
2026-04-30 13:29 1.38075 173.14584 37 ft 0 kts 321°